Preview of NWS' New Version of Forecast
This preview is not operational and should not be used for support decisions.

Regional Weather Roundup (RWR)

Issued by Gray - Portland, ME (GYX)

                            
426 
ASUS41 KGYX 191910
RWRGYX
WEATHER ROUNDUP FOR MAINE AND NEW HAMPSHIRE
NATIONAL WEATHER SERVICE GRAY ME
300 PM EDT TUE JUN 19 2018

MEZ002-005-006-010-012-015-018-020-021-024-026-027-029-192000-
MAINE
  
CITY           SKY/WX    TMP DP  RH WIND       PRES   REMARKS
PORTLAND       FAIR      77  46  33 NW18G28   29.73F                  
SANFORD        FAIR      78  47  33 NW12G20   29.75S                  
BAR HARBOR     FAIR      73  48  41 N13G22    29.67S                  
WISCASSET      FAIR      76  47  35 MISG      29.73S                  
ROCKLAND       FAIR      74  50  42 NW10      29.69R                  
FRYEBURG       FAIR      79  47  32 N9G18     29.76S                  
LEWISTONAUBURN FAIR      75  46  35 NW15G28   29.75R                  
AUGUSTA        FAIR      75  46  35 NW16G29   29.73S                  
WATERVILLE     FAIR      74  45  35 N15G26    29.70S                  
BANGOR         FAIR      75  47  36 NW20G35   29.69R                  
GREENVILLE       N/A     66  46  48 NW22G32   29.72R                  
MILLINOCKET    FAIR      74  45  35 W14G25    29.68S                  
HOULTON        PTSUNNY   69  47  45 NW16G26   29.62S                  
PRESQUE ISLE   CLOUDY    66  45  46 NW18G25   29.66R                  
FRENCHVILLE    PTSUNNY   65  44  46 NW26G38   29.65S                  
CARIBOU        CLOUDY    65  45  48 NW14G25   29.64S                  
$$

NHZ002-005-008-009-011-012-014-192000-
NEW HAMPSHIRE
  
CITY           SKY/WX    TMP DP  RH WIND       PRES   REMARKS
PORTSMOUTH     MOSUNNY   80  48  31 NW15G21   29.73S                  
ROCHESTER      FAIR      77  51  40 NW14G22   29.75R                  
NASHUA         FAIR      80  52  37 N13G26    29.79R                  
MANCHESTER     FAIR      80  45  28 NW17G28   29.78R                  
CONCORD        FAIR      78  49  35 NW16G22   29.79S                  
LACONIA        FAIR      74  46  36 W8G20     29.81S                  
PLYMOUTH       FAIR      73  47  40 NW12G23   29.81F                  
BERLIN         PTSUNNY   70  50  49 VRB6G18   29.82R                  
WHITEFIELD     FAIR      72  48  42 NW18      29.84S                  
JAFFREY        FAIR      77  50  38 N8        29.83S                  
KEENE          FAIR      81  51  35 N17       29.81S                  
LEBANON        FAIR      76  49  38 N14G23    29.84S                  
MT WASHINGTON  PTSUNNY   41  36  81 NW47G62     N/A                   
$$

VTZ005-007-008-192000-
VERMONT
  
CITY           SKY/WX    TMP DP  RH WIND       PRES   REMARKS
ST JOHNSBURY     N/A     71  47  42 MISG      29.83S                  
MONTPELIER     FAIR      69  51  52 NW12G18   29.90F                  
BURLINGTON     FAIR      72  50  45 N12       29.88F                  
$$

MAZ007-012-024-CTZ003-RIZ002-NYZ038-NYZ072-192000-
SOUTHERN NEW ENGLAND AND NY
  
CITY           SKY/WX    TMP DP  RH WIND       PRES   REMARKS
BOSTON         FAIR      82  50  32 NW8G23    29.75S                  
WORCESTER      FAIR      76  52  43 NW16      29.82R                  
NANTUCKET      FAIR      77  60  55 N12       29.75R                  
PROVIDENCE     FAIR      85  52  32 N15G22    29.76S                  
HARTFORD       FAIR      83  53  35 N12G21    29.79S                  
ALBANY         FAIR      81  50  33 NW10      29.84S                  
NEW YORK CITY  PTSUNNY   88  56  33 N8        29.78F                  
$$

ANZ081-ANZ082-ANZ150-NHZ014-MEZ023>029-192000-
COASTAL MARINE OBSERVATIONS
  
STATION/POSITION TIME  TEMP    WIND        PRES    WAVE
                       AIR SEA DIR/SP/G            HT/PER
                 (UTC) (F)     (DEG/KT/KT) (MB)    (FT/S)
MOUNT DESERT ROC 1900   64     270/ 10/ 12 1005.0R
MATINICUS ROCK   1900   69     310/  2/  3 1005.4R
ISLE OF SHOALS   1900   74     330/ 16/ 18 1006.6R
JEFFREYS LEDGE   1836      60                N/A     2/ 7
$$

.............KEY..............
   WCI - WIND CHILL
   TC  - TEMPERATURE IN CELSIUS
   VSB - VISIBILITY IN MILES
   HX  - HEAT INDEX
   FAIR- INDICATES FEW OR NO CLOUDS BELOW 12,000 FT, WITH NO 
         SIGNIFICANT WEATHER AND/OR OBSTRUCTIONS TO VISIBILITY.